Location: Unspecified
(47.5840°N, 122.3000°W)
Time: 13:27:09
(UTC+00:00)

IRIDIUM 114 - Pass Details

Date: 16 March 2026
Orbit: 776 x 779 km, 86.4° (Epoch: 18 April)

Event Time Altitude Azimuth Distance (km) Brightness Sun altitude
Exits shadow 05:23:58 44° 359° (N) 1,076 5.2 -30.8°
Drops below altitude 10° 05:27:29 10° 3° (N) 2,343 7.2 -31.2°
Sets 05:29:51 0° 4° (N) 3,275 8.0 -31.5°
